星链-37153(STARLINK-37153)

导读

STARLINK-37153(NORAD编号68664)是美国SpaceX公司星链(Starlink)卫星互联网星座的组成卫星,属于低轨通信卫星,运行于近地低轨道。星链项目旨在通过大规模低轨卫星部署,为全球尤其是偏远地区提供高速低延迟的宽带互联网服务,该卫星也服务于这一核心目标。 作为星链二代星座中的卫星,它大概率采用V1.5标准设计,具备激光星间链路能力,可实现卫星间直接通信,优化网络传输效率。目前该卫星处于在轨运行状态,参与全球卫星互联网组网,持续为用户提供通信接入服务,同时也和其他星链卫星一同推动着全球低轨卫星互联网的覆盖建设。

基本信息
目录编号:
68664
目录名称:
STARLINK-37153
国际标识:
2026-077C
轨道中心:
EARTH
卫星名称:
星链-37153
卫星全名:
星链-37153(STARLINK-37153)
卫星状态:
在轨 (已飞行146 天)
发射日期:
2026-04-11 UTC
国别 :
美国 (US)
星等 :
--
轨道信息
数据来源 国际轨道数据
星历时间: 2026-09-04T10:06:09+0800
13小时前
查看轨道信息
半长轴: 6843.669km
偏心率: 0.0001444
轨道倾角: 97.285°
近地点辐角 99.575°
升交点赤经 117.152°
平近点角 260.566°
近地点: 464.543km
远地点: 466.521km
周期: 93.906分钟
每日圈数: 15.334489
详细信息
固有亮度:
5
最大亮度:
2.5
卫星平台:
Starlink V1.0
覆盖范围:
全球
运营商:
太空探索技术公司
运营商所在国:
美国
制造商(研发单位):
太空探索技术公司
制造商所在国:
美国
使用方式:
暂无
卫星简介
Starlink 计划是 SpaceX 推出的全球卫星互联网项目,通过发射低轨道卫星,为全球尤其是偏远地区提供高速、低延迟的互联网服务。自 2019 年起,Starlink 已部署数千颗卫星,旨在缩小全球数字鸿沟,推动互联网普及。该项目还为军事、航空等行业提供通信支持,带来广泛经济效益。
2D轨道图
3D轨道图
轨道高度分析图
轨道倾角分析图
轨道综合分析图
查看轨道综合分析图
交会数据列表
事件ID 空间交会对象 最接近时刻(TCA) 交会距离 交会风险概率(CRP) 交会风险指数(CRI) 操作
CDM_260828-173706-033206-866421
2026-08-28T
17:37:58+0000
0.941 km
远距离
3.023479E-5 中风险 0.65
CDM_260904-175104-765506-866421
2026-09-04T
17:51:12+0000
2.993 km
极远距离
1.337139E-6 低风险 0.38
CDM_260905-130605-111506-866421
2026-09-05T
13:06:51+0000
2.583 km
极远距离
1.335951E-6 低风险 0.38
CDM_260904-123004-605106-866421
2026-09-04T
12:30:36+0000
2.995 km
极远距离
1.237539E-6 低风险 0.37
CDM_260831-210705-386006-866421
2026-08-31T
21:07:42+0000
2.956 km
极远距离
1.186498E-6 低风险 0.36
CDM_260905-065405-264606-866421
2026-09-05T
06:54:01+0000
2.700 km
极远距离
1.060674E-6 低风险 0.36